Stations météo

réclame
Mon MeteoGroup
Brindisi, Italie (16320): Température de l'air & dewpoint: 16.10.2018 16:00:00 - 22.10.2018 16:00:00 (CEST)Brindisi, Italie (16320): Vitesse du vent: 16.10.2018 16:00:00 - 22.10.2018 16:00:00 (CEST)Brindisi, Italie (16320): Direction du vent: 16.10.2018 16:00:00 - 22.10.2018 16:00:00 (CEST)Brindisi, Italie (16320): reduced air pressure: 16.10.2018 16:00:00 - 22.10.2018 16:00:00 (CEST)Brindisi, Italie (16320): visibility: 16.10.2018 16:00:00 - 22.10.2018 16:00:00 (CEST)Brindisi, Italie (16320): Quantités de précipitations: 16.10.2018 16:00:00 - 22.10.2018 16:00:00 (CEST)
Date & Time tt [°C] td [°C] ff [km/h] ff [knt] dd ppp [hPa] vv [km] rr [mm]
22.10.2018 16:00:00 16,0 14,0 21 11 SE - 3,0 -
22.10.2018 15:00:00 16,0 14,0 13 7 SSE - 3,0 -
22.10.2018 14:00:00 16,8 14,7 16 9 SSE 1012,6 5 -
22.10.2018 13:00:00 17,0 15,0 13 7 SE - 5 -
22.10.2018 12:00:00 17,0 14,0 11 6 ESE - 5 -
22.10.2018 11:00:00 17,6 13,7 9 5 SSW 1013,6 8 0,0
22.10.2018 10:00:00 18,0 12,0 9 5 S - 8 -
22.10.2018 09:00:00 17,0 13,0 8 4 SSE - 10 -
22.10.2018 08:00:00 15,5 12,0 4 2 S 1012,7 8 -
22.10.2018 07:00:00 14,0 11,0 13 7 SW - 10 -
22.10.2018 06:00:00 14,0 11,0 5 3 SE - 10 -
22.10.2018 05:00:00 14,0 10,9 9 5 WSW 1012,9 10 0,0
22.10.2018 04:00:00 - - - - - - - -
22.10.2018 03:00:00 18,0 12,0 11 6 ENE - 10 -
22.10.2018 02:00:00 18,0 11,9 9 5 ENE 1014,8 15 -
22.10.2018 01:00:00 19,0 12,0 15 8 ENE - 10 -
22.10.2018 00:00:00 19,0 11,0 15 8 NE - 10 -
21.10.2018 23:00:00 19,0 10,9 18 10 ENE 1015,6 10 0,0
21.10.2018 22:00:00 19,0 11,0 18 10 NE - 10 -
21.10.2018 21:00:00 19,0 12,0 16 9 ENE - 10 -
21.10.2018 20:00:00 19,5 11,7 11 6 N 1015,6 10 -
21.10.2018 19:00:00 20,0 13,0 11 6 N - 10 -
21.10.2018 18:00:00 20,0 13,0 9 5 NNW - 10 -
21.10.2018 17:00:00 19,9 12,9 13 7 NNW 1015,1 10 0,0
21.10.2018 16:00:00 21,0 12,0 15 8 NNW - 10 -
21.10.2018 15:00:00 21,0 15,0 21 11 NW - 10 -
21.10.2018 14:00:00 21,1 15,4 22 12 NW 1016,0 10 -
21.10.2018 13:00:00 21,0 16,0 28 15 NW - 10 -
21.10.2018 12:00:00 20,0 16,0 26 14 NW - 10 -
21.10.2018 11:00:00 19,9 16,1 31 17 NW 1017,6 10 0,0
21.10.2018 10:00:00 19,0 15,0 29 16 WNW - 7 -
21.10.2018 09:00:00 19,0 16,0 26 14 WNW - 7 -
21.10.2018 08:00:00 17,0 15,0 18 10 W - 8 -
21.10.2018 07:00:00 18,0 16,0 24 13 WNW - 8 -
21.10.2018 06:00:00 20,0 14,0 15 8 NNW - 10 -
21.10.2018 05:00:00 19,8 14,1 21 11 NW 1017,3 8 0,0
21.10.2018 04:00:00 18,0 15,0 21 11 W - 10 -
21.10.2018 03:00:00 18,0 15,0 24 13 W - 8 -
21.10.2018 02:00:00 18,4 15,6 28 15 WNW 1018,3 8 -
21.10.2018 01:00:00 18,0 16,0 15 8 W - 10 -
21.10.2018 00:00:00 19,0 17,0 22 12 WNW - 10 -
20.10.2018 23:00:00 19,2 16,3 18 10 NW 1019,3 6 0,0
20.10.2018 22:00:00 19,0 16,0 15 8 W - 6 -
20.10.2018 21:00:00 - - - - - - - -
20.10.2018 20:00:00 20,0 16,1 15 8 NNW 1018,8 6 -
20.10.2018 19:00:00 20,0 17,0 22 12 NW - 6 -
20.10.2018 18:00:00 20,0 17,0 24 13 NW - 8 -
20.10.2018 17:00:00 20,6 17,1 29 16 NW 1018,6 8 0,0
20.10.2018 16:00:00 21,0 18,0 26 14 NW - 7 -
20.10.2018 15:00:00 21,0 17,0 34 18 NW - 7 -
20.10.2018 14:00:00 21,3 17,6 31 17 NW 1019,2 7 -
20.10.2018 13:00:00 21,0 17,0 28 15 NW - 10 -
20.10.2018 12:00:00 21,0 17,0 29 16 NW - 8 -
20.10.2018 11:00:00 20,5 16,1 26 14 NW 1019,6 9 0,0
20.10.2018 10:00:00 20,0 16,0 24 13 NW - 10 -
20.10.2018 09:00:00 20,0 16,0 18 10 NW - 10 -
20.10.2018 08:00:00 19,0 15,8 22 12 NW 1018,7 10 -
20.10.2018 07:00:00 19,0 16,0 18 10 NW - 10 -
20.10.2018 06:00:00 19,0 16,0 18 10 NW - 10 -
20.10.2018 05:00:00 18,7 16,5 16 9 NW 1018,0 10 0,0
20.10.2018 04:00:00 19,0 17,0 16 9 NW - 10 -
20.10.2018 03:00:00 19,0 17,0 15 8 NW - 10 -
20.10.2018 02:00:00 19,1 17,5 18 10 NW 1018,2 10 -
20.10.2018 01:00:00 19,0 17,0 18 10 NW - 10 -
20.10.2018 00:00:00 19,0 17,0 16 9 NW - 10 -
19.10.2018 23:00:00 19,7 17,0 16 9 NW 1017,7 10 0,0
19.10.2018 22:00:00 20,0 17,0 13 7 NW - 8 -
19.10.2018 21:00:00 20,0 17,0 16 9 NNW - 10 -
19.10.2018 20:00:00 19,7 17,0 15 8 NW 1016,9 10 -
19.10.2018 19:00:00 20,0 17,0 16 9 NW - 10 -
19.10.2018 18:00:00 20,0 17,0 16 9 NW - 10 -
19.10.2018 17:00:00 20,8 16,6 18 10 NW 1016,3 10 0,0
19.10.2018 16:00:00 21,0 17,0 18 10 NW - 10 -
19.10.2018 15:00:00 22,0 17,0 21 11 NW - 10 -
19.10.2018 14:00:00 21,5 16,5 16 9 NNW 1016,7 10 -
19.10.2018 13:00:00 22,0 17,0 18 10 NNW - 10 -
19.10.2018 12:00:00 21,0 17,0 18 10 NNW - 10 -
19.10.2018 11:00:00 21,4 17,1 18 10 N 1016,5 10 0,0
19.10.2018 10:00:00 21,0 17,0 16 9 NNW - 10 -
19.10.2018 09:00:00 20,0 18,0 15 8 NNW - 10 -
19.10.2018 08:00:00 17,1 16,2 9 5 W 1015,9 6 -
19.10.2018 07:00:00 17,0 16,0 11 6 W - 4,0 -
19.10.2018 06:00:00 18,0 16,0 9 5 WNW - 9 -
19.10.2018 05:00:00 17,1 16,2 8 4 WNW 1015,3 10 0,0
19.10.2018 04:00:00 - - - - - - - -
19.10.2018 03:00:00 - - - - - - - -
19.10.2018 02:00:00 17,0 15,9 8 4 W 1015,5 10 -
19.10.2018 01:00:00 20,0 17,0 13 7 N - 10 -
19.10.2018 00:00:00 19,0 17,0 8 4 N - 10 -
18.10.2018 23:00:00 17,2 15,8 8 4 W 1015,5 10 0,0
18.10.2018 22:00:00 18,0 16,0 5 3 W - 10 -
18.10.2018 21:00:00 19,0 16,0 4 2 W - 10 -
18.10.2018 20:00:00 19,3 16,8 4 2 NNW 1015,0 10 -
18.10.2018 19:00:00 20,0 17,0 5 3 NNW - 10 -
18.10.2018 18:00:00 21,0 17,0 8 4 N - 10 -
18.10.2018 17:00:00 21,1 17,2 11 6 NNE 1013,7 10 0,0
18.10.2018 16:00:00 21,0 17,0 13 7 N - 10 -
18.10.2018 15:00:00 21,0 17,0 11 6 N - 10 -
18.10.2018 14:00:00 22,0 18,0 11 6 NNE - 10 -
18.10.2018 13:00:00 22,0 18,0 9 5 NNE - 10 -
18.10.2018 12:00:00 21,0 17,0 8 4 NNE - 10 -
18.10.2018 11:00:00 21,3 17,3 8 4 N 1015,6 10 0,0
18.10.2018 10:00:00 21,0 18,0 9 5 NNE - 10 -
18.10.2018 09:00:00 18,0 17,0 4 2 WNW - 8 -
18.10.2018 08:00:00 15,8 15,2 5 3 W 1015,2 8 -
18.10.2018 07:00:00 15,0 15,0 5 3 W - 4,0 -
18.10.2018 06:00:00 15,0 15,0 8 4 W - 4,0 -
18.10.2018 05:00:00 15,0 14,4 8 4 W 1015,0 - 0,0
18.10.2018 04:00:00 15,0 15,0 8 4 W - 6 -
18.10.2018 03:00:00 - - - - - - - -
18.10.2018 02:00:00 15,3 14,5 8 4 W 1016,0 - -
18.10.2018 01:00:00 16,0 15,0 5 3 W - 8 -
18.10.2018 00:00:00 16,0 15,0 5 3 W - 8 -
17.10.2018 23:00:00 16,8 15,6 4 2 WSW 1016,9 9 0,0
17.10.2018 22:00:00 18,0 16,0 9 5 SW - 10 -
17.10.2018 21:00:00 20,0 17,0 4 2 E - 10 -
17.10.2018 20:00:00 19,7 17,2 9 5 ENE 1016,2 10 -
17.10.2018 19:00:00 20,0 17,0 8 4 ENE - 10 -
17.10.2018 18:00:00 21,0 17,0 9 5 ENE - 10 -
17.10.2018 17:00:00 21,2 17,4 13 7 NE 1016,2 10 0,0
17.10.2018 16:00:00 22,0 18,0 13 7 NE - 10 -
17.10.2018 15:00:00 22,0 18,0 11 6 ENE - 10 -
17.10.2018 14:00:00 21,9 17,2 13 7 ENE 1016,8 10 -
17.10.2018 13:00:00 22,0 17,0 9 5 ENE - 10 -
17.10.2018 12:00:00 22,0 18,0 11 6 ENE - 10 -
17.10.2018 11:00:00 21,8 18,0 9 5 E 1018,4 10 0,0
17.10.2018 10:00:00 21,0 18,0 5 3 NE - 10 -
17.10.2018 09:00:00 18,0 17,0 4 2 - - 10 -
17.10.2018 08:00:00 16,0 15,1 8 4 SW 1018,5 10 -
17.10.2018 07:00:00 15,0 14,0 4 2 SW - 10 -
17.10.2018 06:00:00 16,0 15,0 2 1 - - 10 -
17.10.2018 05:00:00 16,0 15,0 2 1 SW 1018,4 10 0,0
17.10.2018 04:00:00 17,0 16,0 2 1 SSE - 10 -
17.10.2018 03:00:00 19,0 17,0 2 1 SSE - 10 -
17.10.2018 02:00:00 18,3 16,4 4 2 S 1019,2 10 -
17.10.2018 01:00:00 19,0 17,0 5 3 SSE - 10 -
17.10.2018 00:00:00 19,0 17,0 9 5 SSE - 10 -
16.10.2018 23:00:00 18,7 16,4 8 4 SSE 1020,0 10 0,0
16.10.2018 22:00:00 19,0 16,0 8 4 SSE - 10 -
16.10.2018 21:00:00 20,0 16,0 8 4 SSE - 10 -
16.10.2018 20:00:00 20,3 16,2 8 4 S 1019,7 10 -
16.10.2018 19:00:00 21,0 17,0 11 6 SSE - 10 -
16.10.2018 18:00:00 22,0 17,0 15 8 SE - 10 -
16.10.2018 17:00:00 22,5 16,5 18 10 ESE 1019,1 10 0,0
16.10.2018 16:00:00 23,0 16,0 18 10 ESE - 10 -

tt = Température de l'air
td = dewpoint
ff = Vitesse du vent
dd = Direction du vent
ppp = reduced air pressure
vv = visibility
rr = Quantités de précipitations

stations d'obs. à proximité